GW3580 Weather Reports


time (UTC)temp
C
wind
direction
speed
KPH
gust
KPH
rain 1hr
cm
rain 24hr
cm
rain mn
cm
humidity
%
barometer
mb
20260503072529 16 258 1.6 1.6 0.00 0.00 0.00 70 1008.4
20260503072026 16 276 3.2 6.4 0.00 0.00 0.00 70 1008.5
20260503071523 17 233 1.6 3.2 0.00 0.00 0.00 70 1008.3
20260503071019 17 242 4.8 6.4 0.00 0.00 0.00 70 1008.4
20260503070516 17 270 1.6 1.6 0.00 0.00 0.00 70 1008.3
20260503054940 18 210 3.2 3.2 0.00 0.00 0.00 67 1008.2
20260503054436 18 258 3.2 6.4 0.00 0.00 0.00 67 1008.2
20260503053934 18 260 8.0 9.7 0.00 0.00 0.00 66 1008.3
20260503053431 18 282 4.8 6.4 0.00 0.00 0.00 66 1008.3
20260503052927 19 248 4.8 8.0 0.00 0.00 0.00 66 1008.2
20260503052425 19 244 3.2 3.2 0.00 0.00 0.00 65 1008.4
20260503051921 19 323 1.6 3.2 0.00 0.00 0.00 65 1008.2
20260503051417 19 240 6.4 8.0 0.00 0.00 0.00 65 1008.3
20260503050915 20 224 3.2 3.2 0.00 0.00 0.00 65 1008.0
20260503050410 20 298 3.2 3.2 0.00 0.00 0.00 63 1008.2
20260503045908 20 257 1.6 3.2 0.00 0.00 0.00 63 1008.1
20260503045406 20 244 3.2 3.2 0.00 0.00 0.00 63 1008.1
20260503044902 20 246 3.2 3.2 0.00 0.00 0.00 63 1008.3
20260503044359 20 262 3.2 3.2 0.00 0.00 0.00 62 1008.1
20260503043856 20 290 3.2 3.2 0.00 0.00 0.00 62 1007.9
20260503043353 20 243 1.6 1.6 0.00 0.00 0.00 62 1007.8
20260503042849 20 207 3.2 3.2 0.00 0.00 0.00 60 1007.9
20260503042346 21 235 1.6 1.6 0.00 0.00 0.00 60 1007.6
20260503041842 21 253 0.0 1.6 0.00 0.00 0.00 59 1007.6
20260503041340 21 117 0.0 1.6 0.00 0.00 0.00 58 1007.7
20260503040837 21 257 1.6 3.2 0.00 0.00 0.00 58 1007.6
20260503040335 21 242 4.8 9.7 0.00 0.00 0.00 57 1007.6
20260503035831 21 27 3.2 3.2 0.00 0.00 0.00 57 1007.4
20260503035328 21 295 1.6 1.6 0.00 0.00 0.00 57 1007.4
20260503034825 22 219 1.6 1.6 0.00 0.00 0.00 57 1007.0
20260503034323 22 244 3.2 3.2 0.00 0.00 0.00 58 1007.0
20260503033820 22 229 1.6 3.2 0.00 0.00 0.00 57 1007.2
20260503033317 22 207 1.6 1.6 0.00 0.00 0.00 56 1007.0
20260503032815 22 253 1.6 3.2 0.00 0.00 0.00 56 1007.2
20260503032314 22 247 1.6 1.6 0.00 0.00 0.00 56 1006.9
20260503031811 23 252 1.6 1.6 0.00 0.00 0.00 55 1007.0
20260503031309 23 106 1.6 1.6 0.00 0.00 0.00 54 1006.8
20260503030805 23 243 3.2 6.4 0.00 0.00 0.00 53 1006.8
20260503030301 23 254 3.2 6.4 0.00 0.00 0.00 53 1006.6
20260503025758 23 243 3.2 6.4 0.00 0.00 0.00 53 1006.6
20260503025256 23 241 3.2 6.4 0.00 0.00 0.00 52 1006.7
20260503024752 24 249 1.6 1.6 0.00 0.00 0.00 52 1006.5
20260503024249 24 260 8.0 11.3 0.00 0.00 0.00 52 1006.6
20260503023746 25 268 3.2 6.4 0.00 0.00 0.00 51 1006.6
20260503023243 25 277 3.2 3.2 0.00 0.00 0.00 50 1006.4
20260503022739 25 220 3.2 3.2 0.00 0.00 0.00 50 1006.5
20260503022234 25 252 3.2 3.2 0.00 0.00 0.00 48 1006.6
20260503021731 26 238 4.8 6.4 0.00 0.00 0.00 46 1006.4
20260503021227 26 263 6.4 8.0 0.00 0.00 0.00 44 1006.5
20260503020725 26 265 3.2 3.2 0.00 0.00 0.00 43 1006.3
20260503020222 26 276 3.2 3.2 0.00 0.00 0.00 44 1006.5
20260503015719 26 260 4.8 6.4 0.00 0.00 0.00 46 1006.4
20260503015216 27 261 3.2 3.2 0.00 0.00 0.00 45 1006.3
20260503014711 27 270 6.4 9.7 0.00 0.00 0.00 43 1006.4
20260503014210 27 248 4.8 6.4 0.00 0.00 0.00 42 1006.4
20260503013706 27 295 4.8 6.4 0.00 0.00 0.00 42 1006.5
20260503013204 27 252 6.4 9.7 0.00 0.00 0.00 41 1006.5
20260503012702 27 279 4.8 6.4 0.00 0.00 0.00 39 1006.4
20260503012158 28 293 3.2 6.4 0.00 0.00 0.00 37 1006.3
20260503011654 28 245 6.4 8.0 0.00 0.00 0.00 36 1006.3
20260503011152 28 245 4.8 6.4 0.00 0.00 0.00 35 1006.1
20260503010648 28 244 4.8 6.4 0.00 0.00 0.00 34 1006.1
20260503010145 28 229 6.4 8.0 0.00 0.00 0.00 35 1006.4
20260503005642 28 257 1.6 3.2 0.00 0.00 0.00 36 1006.3
20260503005139 28 268 1.6 1.6 0.00 0.00 0.00 37 1006.3
20260503004635 28 238 3.2 3.2 0.00 0.00 0.00 35 1006.4
20260503004134 28 236 3.2 3.2 0.00 0.00 0.00 36 1006.2
20260503003631 29 259 1.6 3.2 0.00 0.00 0.00 37 1006.3
20260503003128 29 255 3.2 3.2 0.00 0.00 0.00 33 1006.3
20260503002625 28 259 3.2 3.2 0.00 0.00 0.00 34 1006.3
20260503002121 28 252 4.8 6.4 0.00 0.00 0.00 34 1006.5
20260503001617 30 307 4.8 6.4 0.00 0.00 0.00 34 1006.4
20260503001115 30 269 0.0 0.0 0.00 0.00 0.00 30 1006.4
20260503000612 30 50 1.6 1.6 0.00 0.00 0.00 29 1006.3
20260503000109 29 23 4.8 6.4 0.00 0.00 0.00 29 1006.5
20260502235606 30 28 0.0 1.6 0.00 0.00 0.00 28 1006.6
20260502235104 30 14 0.0 0.0 0.00 0.00 0.00 27 1006.6
20260502234559 30 286 1.6 3.2 0.00 0.00 0.00 26 1006.5
20260502234057 30 38 0.0 1.6 0.00 0.00 0.00 23 1006.6
20260502233557 30 33 1.6 1.6 0.00 0.00 0.00 22 1006.7
20260502233055 30 135 1.6 1.6 0.00 0.00 0.00 22 1006.8
20260502232551 30 224 6.4 8.0 0.00 0.00 0.00 21 1007.1
20260502232048 30 244 3.2 6.4 0.00 0.00 0.00 22 1006.8
20260502231545 31 269 0.0 1.6 0.00 0.00 0.00 21 1007.1
20260502231043 31 23 0.0 1.6 0.00 0.00 0.00 21 1006.9
20260502230541 31 278 1.6 3.2 0.00 0.00 0.00 22 1007.0
20260502230039 31 355 1.6 1.6 0.00 0.00 0.00 23 1007.2
20260502225534 31 3 4.8 8.0 0.00 0.00 0.00 23 1007.4
20260502225032 31 253 4.8 6.4 0.00 0.00 0.00 23 1007.3
20260502224528 31 276 3.2 3.2 0.00 0.00 0.00 22 1007.5
20260502224025 31 235 3.2 6.4 0.00 0.00 0.00 22 1007.6
20260502223523 30 246 3.2 3.2 0.00 0.00 0.00 23 1007.6
20260502223021 31 339 1.6 3.2 0.00 0.00 0.00 23 1008.0
20260502222518 30 198 1.6 3.2 0.00 0.00 0.00 23 1007.9
20260502222014 31 264 4.8 6.4 0.00 0.00 0.00 21 1008.3
20260502221510 30 298 3.2 3.2 0.00 0.00 0.00 22 1008.1
20260502221008 31 260 8.0 9.7 0.00 0.00 0.00 22 1008.3
20260502220503 31 147 8.0 11.3 0.00 0.00 0.00 22 1008.3
20260502220000 30 77 1.6 1.6 0.00 0.00 0.00 22 1008.3
20260502215457 30 203 3.2 6.4 0.00 0.00 0.00 23 1008.6
20260502214953 30 274 4.8 6.4 0.00 0.00 0.00 23 1008.5
20260502214451 30 230 4.8 6.4 0.00 0.00 0.00 23 1008.5
20260502213948 31 246 1.6 1.6 0.00 0.00 0.00 23 1008.6
20260502213445 31 257 4.8 6.4 0.00 0.00 0.00 21 1008.7
20260502212943 30 147 4.8 8.0 0.00 0.00 0.00 21 1008.8
20260502212442 30 210 6.4 8.0 0.00 0.00 0.00 20 1008.9
20260502211939 30 238 3.2 3.2 0.00 0.00 0.00 21 1008.9
20260502211434 30 271 8.0 9.7 0.00 0.00 0.00 20 1009.1
20260502210932 30 321 3.2 3.2 0.00 0.00 0.00 18 1009.3
20260502210428 30 241 3.2 3.2 0.00 0.00 0.00 20 1009.3
20260502205926 30 273 8.0 9.7 0.00 0.00 0.00 21 1009.1
20260502205422 30 258 1.6 1.6 0.00 0.00 0.00 27 1009.3
20260502204919 29 129 1.6 1.6 0.00 0.00 0.00 28 1009.2
20260502204416 30 268 4.8 6.4 0.00 0.00 0.00 28 1009.4
20260502203914 29 359 0.0 1.6 0.00 0.00 0.00 28 1009.5
20260502203411 29 276 4.8 8.0 0.00 0.00 0.00 28 1009.7
20260502202906 30 184 4.8 6.4 0.00 0.00 0.00 28 1009.8
20260502202404 30 131 1.6 1.6 0.00 0.00 0.00 23 1009.6
20260502201902 30 256 3.2 3.2 0.00 0.00 0.00 28 1009.6
20260502201358 29 59 1.6 3.2 0.00 0.00 0.00 30 1009.6
20260502200855 29 115 4.8 6.4 0.00 0.00 0.00 32 1009.8
20260502200350 29 150 3.2 6.4 0.00 0.00 0.00 32 1009.8
20260502195848 28 74 4.8 6.4 0.00 0.00 0.00 33 1009.8
20260502195344 28 236 1.6 1.6 0.00 0.00 0.00 34 1009.9
20260502194841 29 193 4.8 9.7 0.00 0.00 0.00 35 1010.1
20260502194338 28 97 3.2 6.4 0.00 0.00 0.00 37 1009.9
20260502193834 28 153 4.8 8.0 0.00 0.00 0.00 36 1010.1
20260502193331 28 161 1.6 3.2 0.00 0.00 0.00 36 1010.2
20260502192827 28 268 3.2 3.2 0.00 0.00 0.00 37 1010.3
20260502192324 28 165 1.6 3.2 0.00 0.00 0.00 37 1010.3
20260502191821 28 253 1.6 1.6 0.00 0.00 0.00 37 1010.4
20260502191319 28 89 0.0 1.6 0.00 0.00 0.00 38 1010.5
20260502190816 28 147 1.6 1.6 0.00 0.00 0.00 39 1010.3
20260502190313 28 310 3.2 3.2 0.00 0.00 0.00 38 1010.2
20260502185809 27 98 1.6 3.2 0.00 0.00 0.00 41 1010.4
20260502185305 27 78 0.0 1.6 0.00 0.00 0.00 40 1010.5
20260502184802 27 281 3.2 6.4 0.00 0.00 0.00 40 1010.8
20260502184257 27 182 0.0 1.6 0.00 0.00 0.00 41 1010.8
20260502183754 27 145 0.0 0.0 0.00 0.00 0.00 43 1011.0
20260502183250 26 279 1.6 1.6 0.00 0.00 0.00 45 1010.8
20260502182746 26 278 4.8 6.4 0.00 0.00 0.00 44 1010.6
20260502182241 26 3 0.0 0.0 0.00 0.00 0.00 45 1010.9
20260502181738 26 77 1.6 3.2 0.00 0.00 0.00 44 1011.0
20260502181238 26 280 0.0 1.6 0.00 0.00 0.00 46 1011.0
20260502180734 25 194 3.2 3.2 0.00 0.00 0.00 47 1011.1
20260502180232 26 264 1.6 3.2 0.00 0.00 0.00 47 1011.1
20260502170156 22 71 0.0 0.0 0.00 0.00 0.00 57 1011.1
20260502164142 21 65 0.0 1.6 0.00 0.00 0.00 61 1011.1
20260502163638 20 45 1.6 1.6 0.00 0.00 0.00 63 1011.3
20260502163135 20 357 0.0 1.6 0.00 0.00 0.00 65 1011.3
20260502162632 20 30 1.6 3.2 0.00 0.00 0.00 64 1011.4
20260502162129 20 40 1.6 1.6 0.00 0.00 0.00 64 1011.4
20260502161626 19 41 0.0 0.0 0.00 0.00 0.00 66 1011.4
20260502161123 19 348 0.0 0.0 0.00 0.00 0.00 67 1011.2
20260502160621 18 31 0.0 1.6 0.00 0.00 0.00 68 1011.4
20260502160119 17 286 0.0 0.0 0.00 0.00 0.00 71 1011.5
20260502152034 17 29 1.6 1.6 0.00 0.00 0.00 72 1011.4
20260502151531 16 238 3.2 6.4 0.00 0.00 0.00 73 1011.1
20260502151028 16 34 0.0 0.0 0.00 0.00 0.00 73 1011.2
20260502150526 16 260 3.2 3.2 0.00 0.00 0.00 75 1011.3
20260502130410 14 253 0.0 0.0 0.00 0.00 0.00 83 1009.8
20260502123353 13 306 0.0 1.6 0.00 0.00 0.00 85 1009.5
20260502122850 14 309 0.0 0.0 0.00 0.00 0.00 84 1009.1
20260502122346 13 309 0.0 0.0 0.00 0.00 0.00 84 1009.5
20260502121845 13 309 0.0 0.0 0.00 0.00 0.00 84 1009.3
20260502121341 14 309 0.0 0.0 0.00 0.00 0.00 84 1009.3
20260502120839 14 309 0.0 0.0 0.00 0.00 0.00 84 1009.2
20260502120335 14 307 0.0 0.0 0.00 0.00 0.00 83 1009.3
20260502115832 14 22 0.0 0.0 0.00 0.00 0.00 83 1009.4
20260502115329 14 21 0.0 0.0 0.00 0.00 0.00 83 1009.3
20260502114826 14 21 0.0 0.0 0.00 0.00 0.00 82 1009.2
20260502114323 14 21 0.0 0.0 0.00 0.00 0.00 82 1009.2
20260502113820 14 21 0.0 0.0 0.00 0.00 0.00 82 1009.3
20260502113317 14 19 0.0 0.0 0.00 0.00 0.00 82 1009.5
20260502112816 14 26 0.0 0.0 0.00 0.00 0.00 82 1009.4
20260502112313 15 28 0.0 1.6 0.00 0.00 0.00 82 1009.3
20260502111810 15 13 0.0 0.0 0.00 0.00 0.00 81 1009.2
20260502111307 15 13 0.0 0.0 0.00 0.00 0.00 81 1009.2
20260502110805 15 17 0.0 0.0 0.00 0.00 0.00 81 1009.4
20260502110303 15 331 0.0 0.0 0.00 0.00 0.00 81 1009.5
20260502105800 15 13 1.6 1.6 0.00 0.00 0.00 81 1009.5
20260502105256 15 38 0.0 0.0 0.00 0.00 0.00 81 1009.5
20260502104754 15 38 0.0 0.0 0.00 0.00 0.00 81 1009.5
20260502104251 15 40 1.6 1.6 0.00 0.00 0.00 81 1009.6
20260502103749 15 26 0.0 0.0 0.00 0.00 0.00 80 1009.5
20260502103246 15 26 0.0 0.0 0.00 0.00 0.00 80 1009.5
20260502102743 15 9 0.0 1.6 0.00 0.00 0.00 80 1009.7
20260502102239 15 25 1.6 1.6 0.00 0.00 0.00 80 1009.5
20260502101738 15 31 1.6 1.6 0.00 0.00 0.00 80 1009.8
20260502101235 15 47 1.6 1.6 0.00 0.00 0.00 80 1009.7
20260502100733 15 28 0.0 1.6 0.00 0.00 0.00 81 1009.7
20260502100232 15 29 1.6 1.6 0.00 0.00 0.00 81 1009.8
20260502091206 16 278 0.0 1.6 0.00 0.00 0.00 78 1010.3
20260502090703 16 27 0.0 0.0 0.00 0.00 0.00 78 1010.2
20260502090200 16 277 0.0 0.0 0.00 0.00 0.00 77 1010.4